カタログに戻る

STARLINK-36607

運用中通信VLEO
NORAD 67620·PAYLOAD·🇺🇸 United States

打ち上げ Jan 30, 2026 から Cape Canaveral Space Force Station

Loading…

次のパス (今後24時間)

TLE

最新Source: CelesTrak SupGP

元期: Sep 15, 2026, 03:12 UTC

1 67620C 26020D   26258.13381944  .00051275  00000+0  18570-2 0  2587
2 67620  43.0022 149.5539 0001296 273.5389 336.4987 15.27556093    19

AllMySatでSTARLINK-36607をリアルタイム追跡

Download on the App Store